Location: DARK SKY Beskydy - Park tmavé oblohy, www.darkskybeskydy.cz
(49.4926°N, 18.5016°E)
Time: 20:24:03
(UTC+02:00)

deb Explorer IX - Visible Passes

Search period start: 23 July 2024 00:00
Search period end: 02 August 2024 00:00
Orbit: 509 x 878 km, 38.7° (Epoch: 22 July)

Date Brightness Start Highest point End Pass type
(mag) Time Alt. Az. Time Alt. Az. Time Alt. Az.
23 Jul ? 22:11:18 10° WSW 22:16:01 26° S 22:18:38 18° SE visible
23 Jul ? 23:55:52 10° WSW 23:57:12 14° SW 23:57:12 14° SW visible
24 Jul ? 21:08:18 10° SW 21:13:14 28° S 21:17:52 10° ESE visible
24 Jul ? 22:52:18 10° WSW 22:56:29 21° SSW 22:57:13 21° S visible
25 Jul ? 21:48:58 10° WSW 21:53:42 26° S 21:57:09 14° SE visible
25 Jul ? 23:34:04 10° WSW 23:35:42 13° SW 23:35:42 13° SW visible
26 Jul ? 22:30:03 10° WSW 22:33:59 19° SSW 22:35:34 17° S visible
27 Jul ? 21:26:27 10° WSW 21:31:06 24° SSW 21:35:22 10° SE visible
27 Jul ? 23:12:40 10° SW 23:13:56 11° SSW 23:13:56 11° SSW visible
28 Jul ? 22:07:42 10° WSW 22:11:10 16° SSW 22:13:42 12° S visible
29 Jul ? 21:03:46 10° WSW 21:08:10 21° SSW 21:12:25 10° SSE visible
30 Jul ? 21:45:23 10° WSW 21:48:02 13° SSW 21:50:38 10° S visible
01 Aug ? 21:24:14 10° SW 21:24:35 10° SW 21:24:57 10° SSW visible
